sat.trackr.live / text

‹ back to catalog

STARLINK-35353

NORAD 65669 · 2025-211T

PAYLOAD ACTIVE UNKNOWN

§ Identity

Operator
Country
US
Launch date
2025-09-19
Launch site
AFWTR
Launch vehicle
Mass (kg)
RCS (m²)

Purposes: comms

External: N2YO · Heavens-Above · Gunter

§ Orbital elements

Epoch: 2026-09-20T13:37:02.235072Z

Period
93.91 min
Inclination
97.2849°
Eccentricity
0.0000855
Mean motion
15.33450667 rev/d
Perigee alt
464.9 km
Apogee alt
466.1 km
Semi-major
6,843.7 km
B*
5.0824e-4
RAAN
303.7995°
Arg perigee
83.9039°
Mean anomaly
276.2301°
Rev number
5,652

§ Raw data

STARLINK-353531 65669U 25211T   26263.56738698  .00016371  00000+0  50824-3 0  99932 65669  97.2849 303.7995 0000855  83.9039 276.2301 15.33450667 56528

JSON: /api/v1/satellites/65669 · /tle

For live sub-satellite position, see the globe view (requires WebGL).

§ Visibility from observer

Set your observer location to see the next 7 days of passes ≥ 10°. The values pass through the URL so the page stays shareable.

No JS? Fill the form by hand. The geolocation button needs JavaScript.